Location: Unspecified
(43.3830°N, 0.0000°E)
Time: 03:06:46
(UTC+00:00)

Explorer 7 - Pass Details

Date: 02 July 2019
Orbit: 485 x 680 km, 50.3° (Epoch: 22 July)

Event Time Altitude Azimuth Distance (km) Brightness Sun altitude
Rises 07:49:49 0° 286° (WNW) 2,711 9.9 34.5°
Reaches altitude 10° 07:52:10 10° 296° (WNW) 1,852 9.1 35.0°
Maximum altitude 07:56:00 32° 1° (N) 1,010 8.5 35.7°
Drops below altitude 10° 08:00:04 10° 65° (ENE) 1,966 10.7 36.4°
Sets 08:02:38 0° 75° (ENE) 2,907 11.4 36.9°
